Miscellaneous Local Product
Issued by NWS Hastings, NE

Home | Current Version | Previous Version | Graphics & Text | Print | Product List | Glossary On
Versions: 1 2 3 4 5 6 7 8 9 10 11 12 13 14 15 16 17 18 19 20 21 22 23 24 25 26 27 28 29 30 31 32 33 34 35 36 37 38 39 40 41 42 43 44 45 46 47 48 49 50
000
AXUS43 KGID 291802
MISGRI

GID CWA HOURLY WEATHER ROUNDUP
NATIONAL WEATHER SERVICE HASTINGS NE
100 PM CDT FRI MAY 29 2015

NOTE: "FAIR" INDICATES FEW OR NO CLOUDS BELOW 12,000 FEET WITH NO
SIGNIFICANT WEATHER AND/OR OBSTRUCTIONS TO VISIBILITY.

...SOUTH CENTRAL NEBRASKA...

CITY           SKY/WX    TMP DP  RH WIND       PRES   REMARKS
GRAND ISLAND   PTSUNNY   73  58  59 N12       29.97S
HASTINGS       PTSUNNY   73  59  61 NW9       29.98R
KEARNEY        MOSUNNY   73  55  53 NW12G18   29.98S
ORD            PTSUNNY   68  57  68 N17G25    29.97R
YORK           CLOUDY    72  63  73 NW6       29.95S
AURORA         PTSUNNY   73  59  60 N12       29.96S
LEXINGTON      MOSUNNY   73  59  61 N14G21    30.01R
HOLDREGE       MOSUNNY   74  53  47 N9G18     29.99S
HEBRON         CLOUDY    72  56  57 W3        29.97R

...NEBRASKA PANHANDLE...

CITY           SKY/WX    TMP DP  RH WIND       PRES   REMARKS
CHADRON        LGT RAIN  49  46  90 NE17G24   30.22R
ALLIANCE       LGT RAIN  50  49  96 N16       30.18R FOG
SCOTTSBLUFF    LGT RAIN  54  53  97 W10       30.19R
SIDNEY         PTSUNNY   63  52  67 N18G26    30.15F

...WESTERN AND NORTH CENTRAL NEBRASKA...

CITY           SKY/WX    TMP DP  RH WIND       PRES   REMARKS
VALENTINE      LGT RAIN  53  51  93 N18G29    30.12R FOG
AINSWORTH      LGT RAIN  56  55  99 N22G29    30.08R
ONEILL         CLOUDY    64  61  93 NW16G22   29.98R FOG
BROKEN BOW     PTSUNNY   72  56  57 N14G22    30.01R
IMPERIAL         N/A     68  54  60 NW12      30.08F
NORTH PLATTE   CLOUDY    67  55  65 N14       30.06S
MCCOOK         PTSUNNY   73  55  53 N14       30.03F

...EASTERN NEBRASKA...

CITY           SKY/WX    TMP DP  RH WIND       PRES   REMARKS
NORFOLK        PTSUNNY   75  62  64 NW9       29.91F
SO SIOUX CITY  CLOUDY    75  60  59 W6        29.90S
TEKAMAH        CLOUDY    75  63  66 SW10      29.90S
COLUMBUS       CLOUDY    73  61  64 W7        29.94F
ALBION         PTSUNNY   71  59  66 NW13      29.94S
OMAHA EPPLEY   CLOUDY    75  60  59 SW9       29.92S
OFFUTT AFB     CLOUDY    74  60  60 S12       29.92S
MILLARD        CLOUDY    74  61  64 SW7       29.93S
LINCOLN        CLOUDY    73  60  63 S7        29.94F
NEBRASKA CITY  CLOUDY    72  63  75 SW12      29.95F
BEATRICE       CLOUDY    71  60  67 SW6       29.96S
FALLS CITY     CLOUDY    70  65  84 S10       29.97R

...NORTHERN KANSAS...

CITY           SKY/WX    TMP DP  RH WIND       PRES   REMARKS
GOODLAND       PTSUNNY   69  53  56 N14G21    30.11S
HILL CITY      MOSUNNY   74  56  53 VRB6      30.02S
NORTON         CLEAR     75  48  38 NW13G20   30.01S
PHILLIPSBURG   SUNNY     75  57  53 NW7       30.00R
SMITH CENTER   SUNNY     73  59  60 NW7       29.99S
HAYS           PTSUNNY   73  57  56 W6        30.02R
RUSSELL        PTSUNNY   74  59  59 N7        29.99R
CONCORDIA      CLOUDY    71  60  68 VRB3      29.97S
SALINA         CLOUDY    75  60  59 SW7       29.97F
TOPEKA         LGT RAIN  69  67  93 S10       29.99R



USA.gov is the U.S. government's official web portal to all federal, state and local government web resources and services.